阿斯特拉 2D星 (ASTRA 2D)

导读 | 星芒AI

ASTRA 2D 是欧洲通信卫星公司Eutelsat运营的一颗高功率通信卫星,于2005年发射,位于28.5°E轨道位置。该卫星主要用于广播和宽带服务,覆盖欧洲大部分地区,支持数字电视、数据传输和VSAT应用。ASTRA 2D 提供多个转发器,具备C波段和Ku波段传输能力,广泛服务于家庭接收和专业通信领域。

基本信息
目录编号:
26638
目录名称:
ASTRA 2D
国际标识:
2000-081A
轨道中心:
EARTH
卫星名称:
阿斯特拉 2D星
卫星全名:
阿斯特拉 2D星 (ASTRA 2D)
卫星状态:
在轨 (已飞行9124 天)
发射日期:
2000-12-20 UTC
国别 :
(SES)
星等 :
--
轨道信息
数据来源 国际轨道数据 AOE轨道数据
星历时间 2025-12-13T03:33:36+0800
14小时前
查看轨道信息
2025-12-08T11:00:00+0800
5天前
查看轨道信息
半长轴 42524.327km 42524.814km
偏心率 0.000523 0.0005031
轨道倾角 10.062° 10.052°
近地点辐角 203.648° 202.656°
升交点赤经 50.668° 50.710°
平近点角 319.003° 88.380°
近地点 36123.951km 36125.284km
远地点 36168.433km 36168.074km
周期 1454.507分钟 1454.532分钟
每日圈数 0.990026 0.990009
详细信息
卫星平台:
HS-376HP
平衡模式:
三轴稳定
覆盖范围:
全球
运营商:
欧洲卫星公司
运营商所在国:
卢森堡
制造商(研发单位):
波音公司
制造商所在国:
美国
使用方式:
暂无
卫星简介
阿斯特拉卫星是由SES阿斯特拉运营的商业通信卫星,主要提供电视直播到户业务。Astra卫星包括三个系列共19颗卫星,分别定点在三个不同轨位:Astra-1系列包括十三颗卫星,定点东经19.2度;Astra-2系列包括4颗卫星,定点东经28.2度;Astra-3系列包括2颗卫星,定点东经23.5度。该卫星已退役。
2D轨道图
3D轨道图
轨道高度分析图
轨道倾角分析图
轨道综合分析图
查看轨道综合分析图